Location: Mexico
(19.4000°N, 99.1500°W)
Time: 08:13:05
(UTC-06:00)

ISS - Pass Details

Date: 15 September 2019
Orbit: 411 x 421 km, 51.6° (Epoch: 18 September)

Event Time Altitude Azimuth Distance (km) Brightness Sun altitude
Rises 05:17:52 0° 339° (NNW) 2,344 -0.1 -16.4°
Reaches altitude 10° 05:20:19 10° 357° (N) 1,483 -0.9 -15.8°
Maximum altitude 05:22:52 20° 47° (NE) 1,012 -1.1 -15.2°
Drops below altitude 10° 05:25:26 10° 98° (E) 1,485 0.3 -14.6°
Sets 05:27:53 0° 115° (ESE) 2,348 1.1 -14.0°
